ONEWEB-0111 (47261 NORAD) Tracking and Keplerian Element Data

This shows tracking and keplerian element data for the satellite.

Feedback or suggestion? Click here.




ElementValue
Catalog47261
NameONEWEB-0111
Epoch Orbit1691
Epoch Day106.25002315
Epoch Year2021
RAAN5.9863
Inclination87.9407
Eccentricity0.0001365
Argument of Perigee82.6881
Mean Anonmoly233.398
Mean Motion13.24142359
Decay Rate-0.00011096
L11 47261U 20100D 21106.25002315 -.00011096 00000-0 -26019-1 0 9999
L22 47261 87.9407 5.9863 0001365 82.6881 233.3980 13.24142359 16915

Live tracking and technical data element details for ONEWEB-0111 (NORAD 47261). ONEWEB-0111 can be tracked NOW for your location showing map with azimuth and elevation plus other details from your city location.

Track the satellite on the map from your city or location and see movement details for azimuth, elevation, latitude, longitude, range, height, and movement on the map or in text.







IsCatalogInMostPopularTable: catalog: 47261, numindb: 38
Update: records affected: 1



GetName: 47261 ONEWEB-0111

Hit Count: updated at: Fri, 16 Apr 2021 10:25:49 GMT